Showing default

ELARA 1, 64539

Orbit data source: Space-Track

ELARA 1, 64539 is a payload satellite owned by Gilmour Space (AU) in SSO that was launched on Mon, 23 Jun 2025 UTC via an FALCON 9 launch vehicle from the Air Force Western Test Range (AFWTR).

MMS-1 Satellite from Gilmour Space.

Loading next visibility...
Identifier
64539, 2025-135M
Orbit
SSO
Country
Flag of AUAU / AUS
Related business
Manufacturer
Gilmour Space
Mission
Operational Commercial Earth Obs Sci
Bus & Motor
ELARASAT, Unknown motor
Mass
100 kg wet, 100 kg dry
Launch date (UTC)
2025-06-23 (10 months ago)
Launch vehicle
FALCON 9
Launch site
Air Force Western Test Range (AFWTR)
Object type
Payload
Rocket body
Debris
Shape & HBR
Box, 0.3 m
Radar Cross Section
0.375 m², Large (>1 m²)

Expand to show TLE details & history
Last TLE update: 8 hours ago

TLE from 8 hours ago
0 ELARA 1
1 64539U 25135M   26120.06712485  .00005411  00000-0  23653-3 0  9990
2 64539  97.4674 235.8677 0003126  12.4500 347.6813 15.22504987 47554
Epoch: 2026-04-30T01:36Z
TLE epoch observation values (Epoch: 2026-04-30T01:36:39.587Z)
Latitude
0.00001°
Longitude
-6.3163°
Altitude
499.279 km
Speed
7.616 km/s
True Right ascension
15h 43m 28s
True Declination
0° 00' 00"
Sunlit
Object was in full shadow at epoch
Visualization orbit readout
Latitude
Unknown
Longitude
Unknown
Altitude
Unknown
Speed
Unknown
Apparent Right ascension
Unknown
Apparent Declination
Unknown
Sunlit
N/A
Visualization observer readout
Local Sidereal Time
17:28:05
Azimuth
Unknown
Elevation
Unknown
Doppler factor
Unknown
Orbital elements
Apogee altitude
497.401 km
Perigee altitude
493.104 km
Semi-major axis
6,873.39 km
Eccentricity
0.00031
Inclination
97.4674°
RAAN
235.8677°
Arg. of periapsis
12.45°
True anomaly
347.67365°
Mean anomaly
347.6813°
Eccentric anomaly
347.67748°
Mean motion
3.80879 °/min
Orbital period
94.52 mins
BSTAR
0.00023653
Loading maneuver chart data...
Computing Atmospheric mass density...
Loading historical data...
Loading historical data...
Loading historical data...
Loading historical data...
Loading historical data...
Loading historical data...
Loading historical data...

Documentation

Showing up to 5 results
|